#timestamp,LO_Frequency,Hit 
1504706415.5,286047003.2,N
1504706435.3,286047003.0,N
1504706455.1,286047003.2,N
1504706475.9,286047001.7,N
1504706495.7,286047002.3,N
1504706515.5,286046999.8,N
1504706535.4,286046999.6,N
1504706555.2,286047000.4,N
1504706575.0,286047002.3,N
1504706575.9,286047002.3,N
1504706595.8,286046998.8,N
1504706615.6,286046997.0,N
1504706635.4,286046995.6,N
1504706655.3,286046999.3,N
1504706675.1,286046996.5,N
1504706676.0,286046996.5,N
1504706695.8,286046999.9,N
1504706715.7,286047004.3,N
1504706735.5,286047001.9,N
1504706755.3,286046998.4,N
1504706775.2,286046998.5,N
1504706795.9,286046999.0,N
1504706815.7,286046994.0,N
1504706835.5,286046996.4,N
1504706855.4,286046994.0,N
1504706875.2,286046992.0,N
1504706895.0,286046994.3,N
1504706895.9,286046994.3,N
1504706915.8,286046997.7,N
1504706935.6,286046998.6,N
1504706955.4,286047002.5,N
1504706975.3,286047004.1,N
1504706995.1,286047003.2,N
1504707015.8,286047004.1,N
1504707035.7,286047001.0,N
1504707055.5,286047002.7,N
1504707075.3,286047003.4,N
1504707095.2,286047004.6,N
1504707115.9,286047003.0,N
1504707135.7,286047004.5,N
1504707155.6,286047003.3,N
1504707175.4,286047002.9,N
1504707195.2,286047005.0,N
1504707215.0,286047008.8,N
1504707216.0,286047008.8,N
1504707235.8,286047009.6,N
1504707255.6,286047010.2,N
1504707275.4,286047008.4,N
1504707295.3,286047010.2,N
1504707315.1,286047010.3,N
1504707335.8,286047008.1,N
1504707355.7,286047008.7,N
1504707375.5,286047008.1,N
1504707395.3,286047009.6,N
1504707415.2,286047009.2,N
1504707435.9,286047009.5,N
1504707455.7,286047008.4,N
1504707475.6,286047008.2,N
1504707495.4,286047007.8,N
1504707515.2,286047008.7,N
1504707535.1,286047010.4,P
1504707536.0,286047010.4,P
1504707555.8,286046998.2,N
1504707575.6,286046998.5,N
1504707595.5,286046995.2,N
1504707615.3,286046996.2,N
1504707635.1,286046992.0,N
1504707655.9,286046987.7,N
1504707675.7,286046986.4,N
1504707695.5,286046982.3,N
1504707715.4,286046985.2,N
1504707735.2,286046985.4,N
1504707755.0,286046989.5,N
1504707755.9,286046989.5,N
1504707775.7,286046990.7,N
1504707795.6,286046990.1,N
1504707815.4,286046989.5,N
1504707835.2,286046989.1,N
1504707855.1,286046994.4,N
1504707856.0,286046994.4,N
1504707875.8,286046991.8,N
1504707895.6,286046992.5,N
1504707915.5,286046990.4,N
1504707935.3,286046987.7,N
1504707955.1,286046982.7,N
1504707975.9,286046985.1,N
1504707995.7,286046985.0,N
1504708015.5,286046982.3,N
1504708035.4,286046979.6,N
1504708055.2,286046978.5,N
1504708075.0,286046980.3,N
1504708075.9,286046980.3,P
1504708095.8,286046989.7,N
1504708115.6,286046985.5,P
1504708135.4,286046988.0,P
1504708155.3,286047003.1,P
1504708175.1,286047006.6,N
1504708176.0,286047006.6,N
1504708195.8,286047010.5,N
1504708215.7,286047010.4,N
1504708235.5,286047008.0,N
1504708255.3,286047005.2,N
1504708275.2,286047004.1,N
1504708295.9,286047003.7,N
1504708315.7,286047008.8,N
1504708335.5,286047008.2,N
1504708355.4,286047009.3,N
1504708375.2,286047012.4,N
1504708395.0,286047007.0,N
1504708395.9,286047007.0,N
1504708415.8,286047005.0,N
1504708435.6,286047006.7,N
1504708455.4,286047005.9,N
1504708475.3,286047002.9,N
1504708495.1,286047007.4,N
1504708515.8,286047006.7,N
1504708535.7,286047006.2,N
1504708555.5,286047008.6,N
1504708575.3,286047006.8,N
1504708595.2,286047007.7,N
1504708615.9,286047009.7,N
1504708635.7,286047011.4,N
1504708655.5,286047012.2,N
1504708675.4,286047011.1,N
1504708695.2,286047015.2,P
1504708715.1,286047004.8,N
1504708716.0,286047004.8,N
1504708735.8,286047008.2,N
1504708755.6,286047010.8,N
1504708775.5,286047012.0,P
1504708795.3,286047001.1,N
1504708815.1,286047002.7,N
1504708835.9,286047004.3,N
1504708855.7,286047003.7,N
1504708875.5,286046998.2,N
1504708895.4,286046996.8,N
1504708915.2,286046996.2,N
1504708935.0,286046993.8,N
1504708935.9,286046993.8,N
1504708955.8,286046992.6,N
1504708975.6,286046989.8,N
1504708995.4,286046986.1,N
1504709015.3,286046980.7,N
1504709035.1,286046983.0,N
1504709055.8,286046983.9,N
1504709075.7,286046986.3,N
1504709095.5,286046983.5,N
1504709115.3,286046984.0,N
1504709135.2,286046985.0,N
1504709155.9,286046984.7,N
1504709175.7,286046985.2,N
1504709195.6,286046986.3,N
1504709215.4,286046991.5,N
1504709235.2,286046993.1,N
1504709255.0,286046994.6,N
1504709256.0,286046994.6,N
1504709275.8,286046989.4,N
1504709295.6,286046992.0,N
1504709315.4,286046994.8,N
1504709335.3,286046994.2,N
1504709355.1,286046992.1,N
1504709375.8,286046992.3,N
1504709395.7,286046990.4,N
1504709415.5,286046992.7,N
1504709435.3,286046994.5,N
1504709455.2,286046995.5,N
1504709475.9,286046998.3,N
1504709495.7,286046996.6,N
1504709515.6,286046995.1,N
1504709535.4,286046996.4,N
1504709555.2,286046997.7,N
1504709575.1,286046995.0,N
1504709576.0,286046995.0,N
1504709595.8,286046996.4,N
1504709615.6,286046994.5,N
1504709635.4,286046988.1,N
1504709655.3,286046985.8,P
1504709675.1,286046994.5,N
1504709695.9,286046991.2,N
1504709715.7,286046987.5,P
1504709735.5,286046997.2,N
1504709755.4,286046994.0,N
1504709775.2,286046991.2,N
1504709795.0,286046990.7,N
1504709795.9,286046990.7,P
1504709815.8,286046999.0,N
1504709835.6,286046996.2,N
1504709855.4,286046994.3,N
1504709875.3,286046993.4,N
1504709895.1,286046996.1,N
1504709896.0,286046996.1,N
1504709915.8,286046992.1,P
1504709935.7,286046997.0,N
1504709955.5,286046999.5,N
1504709975.4,286046998.0,N
1504709995.2,286046996.9,N
